| time (UTC) | temp F | wind direction | speed MPH | gust MPH | rain 1hr in | rain 24hr in | rain mn in | humidity % | barometer mb |
| 20260508021802 | 65 | 72 | 1.0 | 4.0 | 0.00 | 0.01 | 0.00 | 68 | 1014.0 |
| 20260508021300 | 65 | 21 | 1.0 | 5.0 | 0.00 | 0.01 | 0.00 | 68 | 1014.0 |
| 20260508020759 | 65 | 21 | 2.0 | 5.0 | 0.00 | 0.01 | 0.00 | 67 | 1014.0 |
| 20260508020254 | 65 | 38 | 2.0 | 5.0 | 0.00 | 0.01 | 0.00 | 67 | 1013.9 |
| 20260508020017 | 65 | 66 | 2.0 | 5.0 | 0.00 | 0.01 | 0.00 | 67 | 1013.9 |
| 20260508015247 | 65 | 65 | 2.0 | 8.0 | 0.00 | 0.01 | 0.00 | 66 | 1013.8 |
| 20260508014744 | 65 | 108 | 2.0 | 8.0 | 0.00 | 0.01 | 0.00 | 66 | 1013.6 |
| 20260508014514 | 65 | 36 | 2.0 | 7.0 | 0.00 | 0.01 | 0.00 | 65 | 1013.4 |
| 20260508013743 | 65 | 176 | 1.0 | 6.0 | 0.00 | 0.01 | 0.00 | 65 | 1013.7 |
| 20260508013245 | 65 | 132 | 1.0 | 5.0 | 0.00 | 0.01 | 0.00 | 65 | 1014.0 |
| 20260508012743 | 66 | 116 | 2.0 | 8.0 | 0.00 | 0.01 | 0.00 | 64 | 1014.0 |
| 20260508012243 | 66 | 129 | 2.0 | 8.0 | 0.00 | 0.01 | 0.00 | 64 | 1013.9 |
| 20260508011745 | 66 | 35 | 2.0 | 6.0 | 0.00 | 0.01 | 0.00 | 63 | 1014.4 |
| 20260508011241 | 66 | 18 | 2.0 | 6.0 | 0.00 | 0.01 | 0.00 | 63 | 1014.7 |
| 20260508010741 | 66 | 338 | 1.0 | 5.0 | 0.00 | 0.01 | 0.00 | 63 | 1014.5 |
| 20260508010513 | 66 | 54 | 2.0 | 7.0 | 0.00 | 0.01 | 0.00 | 63 | 1014.4 |
| 20260508005742 | 66 | 53 | 3.0 | 7.0 | 0.00 | 0.01 | 0.00 | 62 | 1013.7 |
| 20260508005242 | 66 | 23 | 3.0 | 7.0 | 0.00 | 0.01 | 0.00 | 62 | 1014.0 |
| 20260508004741 | 67 | 12 | 2.0 | 7.0 | 0.00 | 0.01 | 0.00 | 62 | 1014.3 |
| 20260508004239 | 67 | 72 | 1.0 | 5.0 | 0.00 | 0.01 | 0.00 | 63 | 1013.8 |
| 20260508003737 | 67 | 78 | 1.0 | 4.0 | 0.00 | 0.01 | 0.00 | 62 | 1014.6 |
| 20260508003511 | 67 | 74 | 1.0 | 4.0 | 0.00 | 0.01 | 0.00 | 63 | 1014.5 |
| 20260508002731 | 67 | 45 | 1.0 | 3.0 | 0.00 | 0.01 | 0.00 | 63 | 1014.6 |
| 20260508002233 | 67 | 32 | 1.0 | 4.0 | 0.00 | 0.01 | 0.00 | 63 | 1014.7 |
| 20260508001732 | 67 | 32 | 2.0 | 4.0 | 0.00 | 0.01 | 0.00 | 62 | 1015.1 |
| 20260508001232 | 68 | 36 | 2.0 | 4.0 | 0.00 | 0.01 | 0.00 | 62 | 1014.9 |
| 20260508000733 | 68 | 186 | 1.0 | 4.0 | 0.00 | 0.01 | 0.00 | 62 | 1014.8 |
| 20260508000231 | 68 | 54 | 2.0 | 5.0 | 0.00 | 0.01 | 0.00 | 62 | 1015.0 |
| 20260507235729 | 68 | 28 | 3.0 | 7.0 | 0.00 | 0.01 | 0.00 | 61 | 1015.5 |
| 20260507235458 | 68 | 16 | 3.0 | 8.0 | 0.00 | 0.01 | 0.00 | 61 | 1015.4 |
| 20260507234727 | 68 | 14 | 3.0 | 8.0 | 0.00 | 0.01 | 0.00 | 62 | 1015.4 |
| 20260507234228 | 68 | 17 | 2.0 | 7.0 | 0.00 | 0.01 | 0.00 | 62 | 1015.6 |
| 20260507233728 | 68 | 22 | 3.0 | 9.0 | 0.00 | 0.01 | 0.00 | 62 | 1015.5 |
| 20260507233228 | 68 | 29 | 3.0 | 9.0 | 0.00 | 0.01 | 0.00 | 61 | 1015.4 |
| 20260507232727 | 68 | 349 | 3.0 | 8.0 | 0.00 | 0.01 | 0.00 | 62 | 1015.5 |
| 20260507232229 | 69 | 16 | 3.0 | 8.0 | 0.00 | 0.01 | 0.00 | 61 | 1015.6 |
| 20260507231725 | 69 | 38 | 3.0 | 8.0 | 0.00 | 0.01 | 0.00 | 62 | 1015.5 |
| 20260507231456 | 69 | 26 | 3.0 | 8.0 | 0.00 | 0.01 | 0.00 | 61 | 1015.5 |
| 20260507230726 | 69 | 183 | 2.0 | 7.0 | 0.00 | 0.01 | 0.00 | 61 | 1015.3 |
| 20260507230223 | 69 | 19 | 3.0 | 8.0 | 0.00 | 0.01 | 0.00 | 61 | 1015.4 |
| 20260507225724 | 69 | 13 | 3.0 | 8.0 | 0.00 | 0.01 | 0.00 | 61 | 1015.5 |
| 20260507225218 | 69 | 5 | 2.0 | 6.0 | 0.00 | 0.01 | 0.00 | 61 | 1015.7 |
| 20260507224711 | 69 | 83 | 2.0 | 8.0 | 0.00 | 0.01 | 0.00 | 61 | 1015.7 |
| 20260507224438 | 69 | 355 | 3.0 | 8.0 | 0.00 | 0.01 | 0.00 | 61 | 1015.6 |
| 20260507223659 | 69 | 355 | 3.0 | 8.0 | 0.00 | 0.01 | 0.00 | 60 | 1015.8 |
| 20260507223154 | 69 | 355 | 3.0 | 6.0 | 0.00 | 0.01 | 0.00 | 61 | 1015.9 |
| 20260507222648 | 69 | 0 | 2.0 | 6.0 | 0.00 | 0.01 | 0.00 | 60 | 1016.0 |
| 20260507222142 | 69 | 346 | 2.0 | 6.0 | 0.00 | 0.01 | 0.00 | 61 | 1016.0 |
| 20260507221636 | 69 | 355 | 2.0 | 6.0 | 0.00 | 0.01 | 0.00 | 61 | 1016.0 |
| 20260507221402 | 69 | 341 | 3.0 | 11.0 | 0.00 | 0.01 | 0.00 | 61 | 1016.0 |
| 20260507220624 | 69 | 25 | 3.0 | 11.0 | 0.00 | 0.01 | 0.00 | 61 | 1016.0 |
| 20260507220117 | 69 | 355 | 2.0 | 8.0 | 0.00 | 0.01 | 0.00 | 61 | 1016.0 |
| 20260507215615 | 69 | 11 | 2.0 | 5.0 | 0.00 | 0.01 | 0.00 | 61 | 1016.0 |
| 20260507215610 | 69 | 331 | 3.0 | 9.0 | 0.00 | 0.01 | 0.00 | 61 | 1015.9 |
| 20260507214830 | 69 | 13 | 4.0 | 11.0 | 0.00 | 0.01 | 0.00 | 61 | 1016.0 |
| 20260507214056 | 69 | 0 | 5.0 | 15.0 | 0.00 | 0.01 | 0.00 | 60 | 1016.0 |
| 20260507214051 | 69 | 26 | 3.0 | 10.0 | 0.00 | 0.01 | 0.00 | 60 | 1015.9 |
| 20260507213042 | 69 | 326 | 2.0 | 8.0 | 0.00 | 0.01 | 0.00 | 61 | 1016.1 |
| 20260507212536 | 69 | 18 | 4.0 | 10.0 | 0.00 | 0.01 | 0.00 | 61 | 1016.0 |
| 20260507212030 | 68 | 14 | 4.0 | 12.0 | 0.00 | 0.01 | 0.00 | 61 | 1015.7 |
| 20260507211525 | 68 | 15 | 5.0 | 14.0 | 0.00 | 0.01 | 0.00 | 62 | 1016.0 |
| 20260507211025 | 68 | 351 | 4.0 | 14.0 | 0.00 | 0.01 | 0.00 | 62 | 1016.1 |
| 20260507210526 | 68 | 347 | 5.0 | 11.0 | 0.00 | 0.01 | 0.00 | 62 | 1016.1 |
| 20260507210025 | 68 | 346 | 5.0 | 15.0 | 0.00 | 0.01 | 0.00 | 62 | 1015.8 |
| 20260507205526 | 68 | 355 | 4.0 | 15.0 | 0.00 | 0.01 | 0.00 | 62 | 1015.8 |
| 20260507205257 | 68 | 336 | 4.0 | 13.0 | 0.00 | 0.01 | 0.00 | 62 | 1015.9 |
| 20260507204525 | 68 | 337 | 5.0 | 14.0 | 0.00 | 0.01 | 0.00 | 62 | 1015.9 |
| 20260507204024 | 68 | 334 | 6.0 | 14.0 | 0.00 | 0.01 | 0.00 | 62 | 1016.1 |
| 20260507203756 | 68 | 355 | 5.0 | 12.0 | 0.00 | 0.01 | 0.00 | 62 | 1016.2 |
| 20260507203025 | 68 | 5 | 4.0 | 11.0 | 0.00 | 0.01 | 0.00 | 62 | 1016.7 |
| 20260507202524 | 69 | 19 | 4.0 | 10.0 | 0.00 | 0.01 | 0.00 | 63 | 1016.9 |
| 20260507202026 | 68 | 5 | 5.0 | 13.0 | 0.00 | 0.01 | 0.00 | 62 | 1017.0 |
| 20260507201527 | 69 | 342 | 6.0 | 13.0 | 0.00 | 0.01 | 0.00 | 61 | 1016.8 |
| 20260507201255 | 69 | 350 | 6.0 | 13.0 | 0.00 | 0.01 | 0.00 | 62 | 1016.9 |
| 20260507200756 | 69 | 0 | 6.0 | 14.0 | 0.00 | 0.01 | 0.00 | 62 | 1016.8 |
| 20260507200026 | 69 | 340 | 5.0 | 14.0 | 0.00 | 0.01 | 0.00 | 62 | 1016.7 |
| 20260507195521 | 69 | 5 | 4.0 | 11.0 | 0.00 | 0.01 | 0.00 | 65 | 1016.6 |
| 20260507195022 | 68 | 34 | 4.0 | 12.0 | 0.00 | 0.01 | 0.00 | 65 | 1016.9 |
| 20260507194522 | 67 | 142 | 5.0 | 13.0 | 0.00 | 0.01 | 0.00 | 66 | 1017.2 |
| 20260507194022 | 67 | 340 | 4.0 | 13.0 | 0.00 | 0.01 | 0.00 | 67 | 1017.1 |
| 20260507193520 | 67 | 333 | 5.0 | 11.0 | 0.00 | 0.01 | 0.00 | 67 | 1017.1 |
| 20260507193022 | 66 | 30 | 5.0 | 10.0 | 0.00 | 0.01 | 0.00 | 68 | 1016.9 |
| 20260507192522 | 66 | 5 | 4.0 | 10.0 | 0.00 | 0.01 | 0.00 | 68 | 1017.1 |
| 20260507192022 | 65 | 51 | 4.0 | 12.0 | 0.00 | 0.01 | 0.00 | 69 | 1017.3 |
| 20260507191521 | 65 | 11 | 4.0 | 12.0 | 0.00 | 0.01 | 0.00 | 69 | 1017.3 |
| 20260507191247 | 65 | 31 | 3.0 | 10.0 | 0.00 | 0.01 | 0.00 | 69 | 1017.3 |
| 20260507190519 | 65 | 149 | 2.0 | 6.0 | 0.00 | 0.01 | 0.00 | 69 | 1017.7 |
| 20260507190018 | 65 | 64 | 3.0 | 10.0 | 0.00 | 0.01 | 0.00 | 68 | 1017.3 |
| 20260507185518 | 66 | 5 | 4.0 | 10.0 | 0.00 | 0.01 | 0.00 | 67 | 1017.1 |
| 20260507185022 | 66 | 61 | 4.0 | 11.0 | 0.00 | 0.01 | 0.00 | 68 | 1017.6 |
| 20260507185016 | 66 | 34 | 4.0 | 11.0 | 0.00 | 0.01 | 0.00 | 68 | 1017.4 |
| 20260507184249 | 66 | 5 | 5.0 | 11.0 | 0.00 | 0.01 | 0.00 | 68 | 1017.7 |
| 20260507183517 | 66 | 350 | 4.0 | 11.0 | 0.00 | 0.01 | 0.00 | 69 | 1017.7 |
| 20260507183018 | 66 | 5 | 3.0 | 9.0 | 0.00 | 0.01 | 0.00 | 69 | 1017.8 |
| 20260507182517 | 65 | 5 | 3.0 | 9.0 | 0.00 | 0.01 | 0.00 | 69 | 1018.0 |
| 20260507182017 | 65 | 24 | 4.0 | 10.0 | 0.00 | 0.01 | 0.00 | 70 | 1017.8 |
| 20260507181518 | 65 | 0 | 5.0 | 13.0 | 0.00 | 0.01 | 0.00 | 70 | 1017.9 |
| 20260507181017 | 65 | 32 | 5.0 | 13.0 | 0.00 | 0.01 | 0.00 | 71 | 1018.0 |
| 20260507180516 | 64 | 342 | 3.0 | 9.0 | 0.00 | 0.01 | 0.00 | 72 | 1017.6 |
| 20260507180018 | 64 | 355 | 3.0 | 9.0 | 0.00 | 0.01 | 0.00 | 73 | 1017.6 |
| 20260507175518 | 63 | 32 | 4.0 | 9.0 | 0.00 | 0.01 | 0.00 | 73 | 1017.6 |
| 20260507175016 | 63 | 102 | 4.0 | 10.0 | 0.00 | 0.01 | 0.00 | 73 | 1017.4 |
| 20260507174519 | 63 | 42 | 4.0 | 10.0 | 0.00 | 0.01 | 0.00 | 74 | 1017.4 |
| 20260507174017 | 62 | 24 | 5.0 | 12.0 | 0.00 | 0.01 | 0.00 | 74 | 1017.3 |
| 20260507173517 | 62 | 19 | 4.0 | 12.0 | 0.00 | 0.01 | 0.00 | 74 | 1017.7 |
| 20260507173015 | 62 | 10 | 2.0 | 10.0 | 0.00 | 0.01 | 0.00 | 75 | 1017.8 |
| 20260507172745 | 62 | 42 | 3.0 | 8.0 | 0.00 | 0.01 | 0.00 | 75 | 1017.9 |
| 20260507172242 | 62 | 67 | 3.0 | 8.0 | 0.00 | 0.01 | 0.00 | 75 | 1017.8 |
| 20260507171506 | 62 | 5 | 3.0 | 8.0 | 0.00 | 0.01 | 0.00 | 75 | 1017.9 |
| 20260507171000 | 62 | 42 | 3.0 | 10.0 | 0.00 | 0.01 | 0.00 | 75 | 1017.8 |
| 20260507170451 | 61 | 55 | 4.0 | 11.0 | 0.00 | 0.01 | 0.00 | 76 | 1018.0 |
| 20260507165946 | 61 | 56 | 4.0 | 11.0 | 0.00 | 0.01 | 0.00 | 76 | 1018.0 |
| 20260507165439 | 61 | 342 | 3.0 | 10.0 | 0.00 | 0.01 | 0.00 | 77 | 1018.4 |
| 20260507164933 | 61 | 54 | 3.0 | 10.0 | 0.00 | 0.01 | 0.00 | 77 | 1018.4 |
| 20260507164427 | 61 | 355 | 3.0 | 11.0 | 0.00 | 0.01 | 0.00 | 78 | 1018.2 |
| 20260507163920 | 61 | 355 | 3.0 | 11.0 | 0.00 | 0.01 | 0.00 | 78 | 1018.2 |
| 20260507163414 | 61 | 11 | 3.0 | 9.0 | 0.00 | 0.01 | 0.00 | 78 | 1018.0 |
| 20260507163139 | 61 | 5 | 2.0 | 8.0 | 0.00 | 0.01 | 0.00 | 79 | 1018.2 |
| 20260507162404 | 61 | 350 | 3.0 | 14.0 | 0.00 | 0.01 | 0.00 | 79 | 1018.6 |
| 20260507161856 | 60 | 5 | 5.0 | 15.0 | 0.00 | 0.01 | 0.00 | 79 | 1018.2 |
| 20260507161623 | 61 | 326 | 4.0 | 15.0 | 0.00 | 0.01 | 0.00 | 79 | 1018.5 |
| 20260507160845 | 61 | 5 | 3.0 | 10.0 | 0.00 | 0.01 | 0.00 | 80 | 1019.0 |
| 20260507160338 | 61 | 316 | 3.0 | 10.0 | 0.00 | 0.01 | 0.00 | 80 | 1019.1 |
| 20260507160103 | 61 | 349 | 4.0 | 10.0 | 0.00 | 0.01 | 0.00 | 80 | 1018.8 |
| 20260507155327 | 61 | 5 | 4.0 | 10.0 | 0.00 | 0.01 | 0.00 | 80 | 1018.2 |
| 20260507154821 | 60 | 339 | 3.0 | 10.0 | 0.00 | 0.01 | 0.00 | 80 | 1018.4 |
| 20260507154315 | 60 | 337 | 3.0 | 11.0 | 0.00 | 0.01 | 0.00 | 81 | 1018.6 |
| 20260507153809 | 60 | 355 | 4.0 | 11.0 | 0.00 | 0.01 | 0.00 | 81 | 1018.5 |
| 20260507153303 | 60 | 344 | 3.0 | 10.0 | 0.00 | 0.01 | 0.00 | 81 | 1018.7 |
| 20260507152757 | 60 | 347 | 2.0 | 9.0 | 0.00 | 0.01 | 0.00 | 81 | 1018.7 |
| 20260507152250 | 60 | 323 | 3.0 | 13.0 | 0.00 | 0.01 | 0.00 | 81 | 1018.7 |
| 20260507151745 | 60 | 5 | 5.0 | 15.0 | 0.00 | 0.01 | 0.00 | 81 | 1018.8 |
| 20260507151239 | 60 | 306 | 4.0 | 15.0 | 0.00 | 0.01 | 0.00 | 81 | 1018.8 |
| 20260507150733 | 60 | 355 | 4.0 | 10.0 | 0.00 | 0.01 | 0.00 | 82 | 1018.7 |
| 20260507150228 | 60 | 355 | 3.0 | 10.0 | 0.00 | 0.01 | 0.00 | 82 | 1018.5 |
| 20260507145721 | 60 | 340 | 3.0 | 10.0 | 0.00 | 0.01 | 0.00 | 82 | 1018.6 |
| 20260507145214 | 60 | 0 | 4.0 | 10.0 | 0.00 | 0.01 | 0.00 | 82 | 1018.6 |
| 20260507144709 | 60 | 5 | 3.0 | 10.0 | 0.00 | 0.01 | 0.00 | 82 | 1018.7 |
| 20260507144433 | 60 | 267 | 3.0 | 10.0 | 0.00 | 0.01 | 0.00 | 82 | 1018.7 |
| 20260507143657 | 60 | 259 | 3.0 | 12.0 | 0.00 | 0.01 | 0.00 | 82 | 1018.8 |
| 20260507143151 | 60 | 309 | 3.0 | 12.0 | 0.00 | 0.01 | 0.00 | 82 | 1018.9 |
| 20260507142645 | 60 | 0 | 3.0 | 9.0 | 0.00 | 0.01 | 0.00 | 82 | 1019.1 |
| 20260507142138 | 60 | 330 | 2.0 | 8.0 | 0.00 | 0.01 | 0.00 | 82 | 1019.0 |
| 20260507141903 | 60 | 307 | 3.0 | 10.0 | 0.00 | 0.01 | 0.00 | 82 | 1019.0 |
| 20260507141126 | 60 | 19 | 4.0 | 10.0 | 0.00 | 0.01 | 0.00 | 82 | 1018.5 |
| 20260507140621 | 60 | 334 | 4.0 | 13.0 | 0.00 | 0.01 | 0.00 | 82 | 1018.4 |
| 20260507140114 | 60 | 342 | 3.0 | 13.0 | 0.00 | 0.01 | 0.00 | 82 | 1018.6 |
| 20260507135609 | 60 | 355 | 2.0 | 9.0 | 0.00 | 0.01 | 0.00 | 82 | 1018.6 |
| 20260507135103 | 60 | 323 | 2.0 | 9.0 | 0.00 | 0.01 | 0.00 | 82 | 1018.7 |
| 20260507134558 | 60 | 11 | 2.0 | 9.0 | 0.00 | 0.01 | 0.00 | 82 | 1018.6 |
| 20260507134051 | 60 | 339 | 1.0 | 6.0 | 0.00 | 0.01 | 0.00 | 82 | 1018.2 |
| 20260507133546 | 60 | 331 | 2.0 | 7.0 | 0.00 | 0.01 | 0.00 | 82 | 1018.3 |
| 20260507133310 | 60 | 330 | 3.0 | 14.0 | 0.00 | 0.01 | 0.00 | 82 | 1018.0 |
| 20260507132533 | 60 | 38 | 4.0 | 14.0 | 0.00 | 0.01 | 0.00 | 82 | 1017.8 |
| 20260507132027 | 60 | 355 | 3.0 | 12.0 | 0.00 | 0.01 | 0.00 | 82 | 1017.8 |
| 20260507131521 | 60 | 330 | 3.0 | 10.0 | 0.00 | 0.01 | 0.00 | 82 | 1017.9 |
| 20260507131014 | 60 | 348 | 4.0 | 12.0 | 0.00 | 0.01 | 0.00 | 82 | 1017.9 |
| 20260507130509 | 60 | 35 | 4.0 | 12.0 | 0.00 | 0.01 | 0.00 | 82 | 1017.9 |
| 20260507130233 | 60 | 333 | 4.0 | 14.0 | 0.00 | 0.01 | 0.00 | 82 | 1018.1 |
| 20260507125457 | 60 | 346 | 3.0 | 14.0 | 0.00 | 0.01 | 0.00 | 82 | 1018.2 |
| 20260507124951 | 60 | 355 | 3.0 | 11.0 | 0.00 | 0.01 | 0.00 | 82 | 1018.3 |
| 20260507124717 | 60 | 336 | 3.0 | 12.0 | 0.00 | 0.01 | 0.00 | 82 | 1018.0 |
| 20260507123938 | 60 | 316 | 3.0 | 12.0 | 0.00 | 0.01 | 0.00 | 82 | 1017.9 |
| 20260507123432 | 60 | 331 | 4.0 | 12.0 | 0.00 | 0.01 | 0.00 | 82 | 1017.9 |
| 20260507122926 | 60 | 347 | 3.0 | 12.0 | 0.00 | 0.01 | 0.00 | 82 | 1017.7 |
| 20260507122427 | 60 | 338 | 2.0 | 8.0 | 0.00 | 0.01 | 0.00 | 82 | 1017.8 |
| 20260507121924 | 60 | 320 | 2.0 | 10.0 | 0.00 | 0.01 | 0.00 | 82 | 1018.0 |
| 20260507121423 | 60 | 343 | 3.0 | 11.0 | 0.00 | 0.01 | 0.00 | 82 | 1017.6 |
| 20260507120921 | 60 | 351 | 3.0 | 11.0 | 0.00 | 0.01 | 0.00 | 82 | 1017.6 |
| 20260507120418 | 60 | 340 | 4.0 | 11.0 | 0.00 | 0.01 | 0.00 | 82 | 1017.1 |
| 20260507115918 | 60 | 338 | 3.0 | 10.0 | 0.00 | 0.01 | 0.00 | 82 | 1017.0 |
| 20260507115418 | 60 | 331 | 3.0 | 10.0 | 0.00 | 0.01 | 0.00 | 82 | 1017.0 |
| 20260507114919 | 60 | 335 | 3.0 | 10.0 | 0.00 | 0.01 | 0.00 | 81 | 1017.0 |
| 20260507114418 | 60 | 330 | 3.0 | 9.0 | 0.00 | 0.01 | 0.00 | 81 | 1017.0 |
| 20260507114151 | 60 | 355 | 3.0 | 9.0 | 0.00 | 0.01 | 0.00 | 81 | 1017.1 |
| 20260507113418 | 60 | 321 | 3.0 | 13.0 | 0.00 | 0.01 | 0.00 | 81 | 1017.1 |
| 20260507112919 | 60 | 344 | 4.0 | 13.0 | 0.00 | 0.01 | 0.00 | 81 | 1016.9 |
| 20260507112413 | 60 | 17 | 3.0 | 10.0 | 0.00 | 0.01 | 0.00 | 81 | 1016.9 |
| 20260507111913 | 60 | 355 | 3.0 | 9.0 | 0.00 | 0.01 | 0.00 | 81 | 1016.9 |
| 20260507111413 | 60 | 347 | 2.0 | 10.0 | 0.00 | 0.01 | 0.00 | 81 | 1016.9 |
| 20260507110913 | 60 | 0 | 4.0 | 15.0 | 0.00 | 0.01 | 0.00 | 81 | 1016.8 |
| 20260507110413 | 60 | 342 | 5.0 | 15.0 | 0.00 | 0.01 | 0.00 | 81 | 1016.8 |
| 20260507105915 | 60 | 344 | 4.0 | 13.0 | 0.00 | 0.01 | 0.00 | 81 | 1016.6 |
| 20260507105415 | 60 | 9 | 4.0 | 13.0 | 0.00 | 0.01 | 0.00 | 81 | 1016.6 |
| 20260507104915 | 60 | 355 | 4.0 | 12.0 | 0.00 | 0.01 | 0.00 | 81 | 1016.4 |
| 20260507104414 | 60 | 346 | 4.0 | 13.0 | 0.00 | 0.01 | 0.00 | 81 | 1016.6 |
| 20260507103910 | 60 | 332 | 4.0 | 13.0 | 0.00 | 0.01 | 0.00 | 80 | 1016.7 |
| 20260507103410 | 60 | 0 | 3.0 | 9.0 | 0.00 | 0.01 | 0.00 | 80 | 1016.5 |
| 20260507102909 | 60 | 339 | 3.0 | 9.0 | 0.00 | 0.01 | 0.00 | 80 | 1016.6 |
| 20260507102411 | 60 | 339 | 3.0 | 9.0 | 0.00 | 0.01 | 0.00 | 80 | 1016.3 |
| 20260507101913 | 60 | 349 | 3.0 | 9.0 | 0.00 | 0.01 | 0.00 | 80 | 1016.1 |
| 20260507101909 | 60 | 0 | 3.0 | 9.0 | 0.00 | 0.01 | 0.00 | 80 | 1016.1 |
| 20260507100907 | 61 | 341 | 3.0 | 8.0 | 0.00 | 0.01 | 0.00 | 80 | 1016.3 |
| 20260507100405 | 61 | 350 | 3.0 | 11.0 | 0.00 | 0.01 | 0.00 | 80 | 1016.1 |
| 20260507095903 | 61 | 355 | 4.0 | 13.0 | 0.00 | 0.01 | 0.00 | 80 | 1016.3 |
| 20260507095635 | 61 | 350 | 4.0 | 13.0 | 0.00 | 0.01 | 0.00 | 79 | 1016.1 |
| 20260507094904 | 61 | 346 | 2.0 | 8.0 | 0.00 | 0.01 | 0.00 | 80 | 1016.0 |
| 20260507094404 | 61 | 331 | 3.0 | 11.0 | 0.00 | 0.01 | 0.00 | 79 | 1016.2 |
| 20260507094132 | 61 | 345 | 2.0 | 11.0 | 0.00 | 0.01 | 0.00 | 79 | 1015.9 |
| 20260507093632 | 61 | 355 | 2.0 | 6.0 | 0.00 | 0.01 | 0.00 | 79 | 1016.0 |
| 20260507092856 | 61 | 338 | 2.0 | 10.0 | 0.00 | 0.01 | 0.00 | 79 | 1015.9 |
| 20260507092350 | 61 | 344 | 3.0 | 10.0 | 0.00 | 0.01 | 0.00 | 79 | 1016.0 |
| 20260507091846 | 61 | 11 | 3.0 | 9.0 | 0.00 | 0.01 | 0.00 | 79 | 1015.9 |
| 20260507091339 | 61 | 327 | 2.0 | 9.0 | 0.00 | 0.01 | 0.00 | 79 | 1016.0 |
| 20260507090832 | 61 | 341 | 1.0 | 6.0 | 0.00 | 0.01 | 0.00 | 79 | 1016.1 |
| 20260507090327 | 61 | 0 | 1.0 | 7.0 | 0.00 | 0.01 | 0.00 | 79 | 1015.9 |
| 20260507085820 | 61 | 10 | 1.0 | 7.0 | 0.00 | 0.01 | 0.00 | 79 | 1015.8 |
| 20260507085314 | 61 | 355 | 1.0 | 6.0 | 0.00 | 0.01 | 0.00 | 79 | 1015.8 |
| 20260507084808 | 61 | 355 | 1.0 | 6.0 | 0.00 | 0.01 | 0.00 | 79 | 1015.8 |
| 20260507084302 | 61 | 5 | 2.0 | 8.0 | 0.00 | 0.01 | 0.00 | 78 | 1015.9 |
| 20260507083756 | 61 | 355 | 2.0 | 8.0 | 0.00 | 0.01 | 0.00 | 78 | 1015.6 |
| 20260507083251 | 62 | 348 | 2.0 | 5.0 | 0.00 | 0.01 | 0.00 | 78 | 1015.8 |
| 20260507082743 | 62 | 345 | 1.0 | 5.0 | 0.00 | 0.01 | 0.00 | 78 | 1015.8 |
| 20260507082238 | 62 | 350 | 1.0 | 5.0 | 0.00 | 0.01 | 0.00 | 78 | 1015.7 |
| 20260507081732 | 62 | 0 | 2.0 | 6.0 | 0.00 | 0.01 | 0.00 | 78 | 1015.9 |
| 20260507081225 | 62 | 0 | 2.0 | 6.0 | 0.00 | 0.01 | 0.00 | 78 | 1015.9 |
| 20260507080720 | 62 | 10 | 1.0 | 4.0 | 0.00 | 0.01 | 0.00 | 78 | 1015.4 |
| 20260507080440 | 62 | 11 | 1.0 | 5.0 | 0.00 | 0.01 | 0.00 | 78 | 1015.4 |
| 20260507080315 | 62 | 11 | 2.0 | 5.0 | 0.00 | 0.01 | 0.00 | 78 | 1015.5 |
| 20260507075202 | 62 | 11 | 1.0 | 4.0 | 0.00 | 0.01 | 0.00 | 78 | 1015.5 |
| 20260507074657 | 62 | 11 | 1.0 | 4.0 | 0.00 | 0.01 | 0.00 | 78 | 1015.6 |
| 20260507074150 | 62 | 12 | 1.0 | 5.0 | 0.00 | 0.01 | 0.00 | 78 | 1015.2 |
| 20260507073645 | 62 | 12 | 1.0 | 5.0 | 0.00 | 0.01 | 0.00 | 78 | 1015.3 |
| 20260507073409 | 62 | 12 | 1.0 | 4.0 | 0.00 | 0.01 | 0.00 | 78 | 1015.2 |
| 20260507072632 | 62 | 12 | 1.0 | 4.0 | 0.00 | 0.01 | 0.00 | 77 | 1015.4 |
| 20260507072126 | 62 | 13 | 0.0 | 3.0 | 0.00 | 0.01 | 0.00 | 77 | 1015.6 |
| 20260507071620 | 62 | 13 | 1.0 | 3.0 | 0.00 | 0.01 | 0.00 | 77 | 1015.5 |
| 20260507071115 | 62 | 13 | 1.0 | 4.0 | 0.00 | 0.01 | 0.00 | 77 | 1015.4 |
| 20260507070608 | 62 | 12 | 2.0 | 6.0 | 0.00 | 0.01 | 0.00 | 77 | 1015.3 |
| 20260507065826 | 62 | 17 | 2.0 | 9.0 | 0.00 | 0.01 | 0.00 | 77 | 1015.6 |
| 20260507065321 | 62 | 333 | 2.0 | 8.0 | 0.00 | 0.01 | 0.00 | 77 | 1015.5 |
| 20260507064815 | 62 | 5 | 3.0 | 8.0 | 0.00 | 0.01 | 0.00 | 77 | 1015.5 |
| 20260507064038 | 62 | 9 | 2.0 | 8.0 | 0.00 | 0.01 | 0.00 | 77 | 1015.6 |
| 20260507063532 | 62 | 24 | 2.0 | 8.0 | 0.00 | 0.01 | 0.00 | 77 | 1015.5 |
| 20260507063026 | 62 | 15 | 2.0 | 8.0 | 0.00 | 0.01 | 0.00 | 77 | 1015.4 |
| 20260507062520 | 62 | 17 | 3.0 | 9.0 | 0.00 | 0.01 | 0.00 | 77 | 1015.2 |
| 20260507062014 | 62 | 325 | 4.0 | 10.0 | 0.00 | 0.01 | 0.00 | 77 | 1014.7 |
| 20260507061508 | 62 | 9 | 3.0 | 10.0 | 0.00 | 0.01 | 0.00 | 77 | 1015.2 |
| 20260507061234 | 62 | 15 | 1.0 | 6.0 | 0.00 | 0.01 | 0.00 | 77 | 1015.4 |
| 20260507060455 | 62 | 0 | 1.0 | 5.0 | 0.00 | 0.01 | 0.00 | 77 | 1015.5 |
| 20260507055950 | 62 | 0 | 2.0 | 6.0 | 0.00 | 0.01 | 0.00 | 77 | 1015.4 |
| 20260507055444 | 62 | 5 | 2.0 | 7.0 | 0.00 | 0.01 | 0.00 | 77 | 1015.1 |
| 20260507054939 | 62 | 349 | 2.0 | 7.0 | 0.00 | 0.01 | 0.00 | 77 | 1015.2 |
| 20260507054438 | 63 | 355 | 1.0 | 5.0 | 0.00 | 0.01 | 0.00 | 77 | 1015.3 |
| 20260507053936 | 62 | 355 | 1.0 | 8.0 | 0.00 | 0.01 | 0.00 | 77 | 1015.4 |
| 20260507053433 | 63 | 5 | 2.0 | 8.0 | 0.00 | 0.01 | 0.00 | 77 | 1015.4 |
| 20260507052938 | 63 | 351 | 3.0 | 8.0 | 0.00 | 0.01 | 0.00 | 77 | 1015.3 |
| 20260507052934 | 63 | 355 | 2.0 | 8.0 | 0.00 | 0.01 | 0.00 | 77 | 1015.3 |
| 20260507051934 | 63 | 350 | 3.0 | 8.0 | 0.00 | 0.01 | 0.00 | 77 | 1015.2 |
| 20260507051434 | 63 | 343 | 2.0 | 7.0 | 0.00 | 0.01 | 0.00 | 77 | 1015.2 |
| 20260507050930 | 63 | 17 | 1.0 | 5.0 | 0.00 | 0.01 | 0.00 | 77 | 1015.0 |
| 20260507050431 | 63 | 14 | 2.0 | 8.0 | 0.00 | 0.01 | 0.00 | 77 | 1015.2 |
| 20260507045932 | 63 | 9 | 3.0 | 9.0 | 0.00 | 0.01 | 0.01 | 77 | 1014.9 |
| 20260507045431 | 63 | 5 | 5.0 | 13.0 | 0.00 | 0.01 | 0.01 | 77 | 1015.0 |
| 20260507044933 | 63 | 339 | 4.0 | 13.0 | 0.00 | 0.01 | 0.01 | 77 | 1015.2 |
| 20260507044431 | 63 | 0 | 2.0 | 6.0 | 0.00 | 0.01 | 0.01 | 77 | 1015.2 |
| 20260507044203 | 63 | 347 | 2.0 | 6.0 | 0.00 | 0.01 | 0.01 | 77 | 1015.1 |
| 20260507043430 | 63 | 301 | 2.0 | 6.0 | 0.00 | 0.01 | 0.01 | 77 | 1015.0 |
| 20260507042929 | 63 | 9 | 2.0 | 8.0 | 0.00 | 0.01 | 0.01 | 77 | 1015.2 |
| 20260507042428 | 63 | 344 | 3.0 | 8.0 | 0.00 | 0.01 | 0.01 | 77 | 1015.2 |
| 20260507041926 | 63 | 344 | 3.0 | 8.0 | 0.00 | 0.01 | 0.01 | 77 | 1015.3 |
| 20260507041421 | 64 | 5 | 2.0 | 7.0 | 0.00 | 0.01 | 0.01 | 77 | 1015.0 |
| 20260507040914 | 64 | 355 | 2.0 | 5.0 | 0.00 | 0.01 | 0.01 | 77 | 1014.9 |
| 20260507040408 | 64 | 355 | 2.0 | 5.0 | 0.00 | 0.01 | 0.01 | 77 | 1014.8 |
| 20260507035903 | 64 | 349 | 1.0 | 7.0 | 0.00 | 0.01 | 0.01 | 77 | 1014.8 |
| 20260507035357 | 64 | 333 | 2.0 | 8.0 | 0.00 | 0.01 | 0.01 | 77 | 1014.9 |
| 20260507034850 | 64 | 333 | 2.0 | 8.0 | 0.01 | 0.01 | 0.01 | 77 | 1014.9 |
| 20260507034344 | 64 | 339 | 2.0 | 6.0 | 0.01 | 0.01 | 0.01 | 77 | 1014.9 |
| 20260507033838 | 64 | 328 | 2.0 | 8.0 | 0.01 | 0.01 | 0.01 | 77 | 1014.9 |
| 20260507033333 | 64 | 355 | 2.0 | 9.0 | 0.01 | 0.01 | 0.01 | 77 | 1014.8 |
| 20260507032826 | 64 | 5 | 2.0 | 9.0 | 0.01 | 0.01 | 0.01 | 77 | 1015.1 |
| 20260507032320 | 64 | 329 | 2.0 | 8.0 | 0.01 | 0.01 | 0.01 | 77 | 1014.9 |
| 20260507031815 | 64 | 338 | 2.0 | 8.0 | 0.01 | 0.01 | 0.01 | 77 | 1014.6 |
| 20260507031308 | 65 | 345 | 1.0 | 5.0 | 0.01 | 0.01 | 0.01 | 77 | 1014.5 |
| 20260507030803 | 65 | 344 | 1.0 | 5.0 | 0.01 | 0.01 | 0.01 | 77 | 1014.7 |
| 20260507030257 | 65 | 345 | 1.0 | 5.0 | 0.01 | 0.01 | 0.01 | 77 | 1015.0 |
| 20260507030021 | 65 | 331 | 1.0 | 7.0 | 0.01 | 0.01 | 0.01 | 77 | 1014.9 |
| 20260507025244 | 65 | 304 | 1.0 | 7.0 | 0.00 | 0.00 | 0.01 | 76 | 1014.6 |
| 20260507024737 | 65 | 338 | 2.0 | 6.0 | 0.00 | 0.00 | 0.00 | 76 | 1014.4 |
| 20260507024503 | 65 | 338 | 2.0 | 6.0 | 0.00 | 0.00 | 0.00 | 76 | 1014.2 |
| 20260507023726 | 65 | 334 | 1.0 | 4.0 | 0.00 | 0.00 | 0.00 | 76 | 1014.5 |
| 20260507023220 | 65 | 325 | 1.0 | 4.0 | 0.00 | 0.00 | 0.00 | 76 | 1014.6 |
| 20260507022714 | 65 | 325 | 2.0 | 6.0 | 0.00 | 0.00 | 0.00 | 76 | 1014.3 |
| 20260507022438 | 65 | 321 | 2.0 | 6.0 | 0.00 | 0.00 | 0.00 | 76 | 1014.2 |